Location: ??????
(55.6130°N, 37.7882°E)
Time: 05:57:17
(UTC+00:00)

Cosmos 192 - Visible Passes

Search period start: 13 July 2024 00:00
Search period end: 23 July 2024 00:00
Orbit: 697 x 711 km, 74.0° (Epoch: 12 July)

Date Brightness Start Highest point End Pass type
(mag) Time Alt. Az. Time Alt. Az. Time Alt. Az.
13 Jul 5.0 21:02:04 18° S 21:05:20 42° ESE 21:10:00 10° NE visible
13 Jul 5.4 22:41:24 10° WSW 22:46:04 41° NW 22:50:48 10° NNE visible
14 Jul 5.9 20:06:39 13° SE 20:09:34 20° E 20:13:10 10° NE visible
14 Jul 4.4 21:45:32 15° SSW 21:49:42 80° WNW 21:54:42 10° NNE visible
14 Jul 6.4 23:27:24 10° W 23:31:12 22° NW 23:35:02 10° NNE visible
15 Jul 4.7 20:50:05 18° S 20:53:36 50° ESE 20:58:23 10° NE visible
15 Jul 5.7 22:29:56 10° WSW 22:34:30 36° NW 22:39:05 10° NNE visible
16 Jul 5.6 19:54:36 13° SSE 19:57:45 24° E 20:01:43 10° NE visible
16 Jul 4.6 21:33:29 12° SW 21:38:02 67° WNW 21:43:00 10° NNE visible
16 Jul 6.6 23:16:08 10° W 23:19:41 19° NW 23:23:16 10° N visible
17 Jul 6.4 19:00:42 10° ESE 19:02:11 11° E 19:03:41 10° ENE visible
17 Jul 4.5 20:37:57 16° S 20:41:52 61° ESE 20:46:46 10° NNE visible
17 Jul 5.9 22:18:30 10° WSW 22:22:55 31° NW 22:27:21 10° NNE visible
18 Jul 7.0 00:03:18 10° NW 00:05:16 12° NNW 00:07:14 10° N visible
18 Jul 5.4 19:42:21 13° SSE 19:45:57 29° ESE 19:50:13 10° NE visible
18 Jul 4.9 21:21:31 10° SW 21:26:23 57° WNW 21:31:18 10° NNE visible
18 Jul 6.8 23:04:54 10° WNW 23:08:12 17° NNW 23:11:30 10° N visible
19 Jul 6.2 18:47:50 10° SE 18:50:19 14° E 18:52:49 10° ENE visible
19 Jul 4.3 20:25:35 12° SSW 20:30:09 73° ESE 20:35:07 10° NNE visible
19 Jul 6.2 22:07:08 10° WSW 22:11:21 27° NW 22:15:35 10° NNE visible
19 Jul 7.2 23:52:17 10° NW 23:53:49 11° NNW 23:55:22 10° N visible
20 Jul 5.1 19:29:52 11° SSE 19:34:10 35° ESE 19:38:39 10° NE visible
20 Jul 5.2 21:09:58 10° SW 21:14:45 48° NW 21:19:35 10° NNE visible
20 Jul 6.9 22:53:42 10° WNW 22:56:42 16° NNW 22:59:42 10° N visible
21 Jul 4.3 20:13:29 10° SSW 20:18:26 87° ESE 20:23:26 10° NNE visible
21 Jul 6.5 21:55:46 10° W 21:59:48 24° NW 22:03:50 10° NNE visible
21 Jul 7.4 23:41:22 10° NNW 23:42:23 11° NNW 23:43:25 10° N visible
22 Jul 4.8 19:17:45 10° S 19:22:23 42° ESE 19:27:03 10° NE visible
22 Jul 5.6 20:58:27 10° WSW 21:03:08 41° NW 21:07:51 10° NNE visible
22 Jul 7.1 22:42:32 10° WNW 22:45:13 14° NNW 22:47:54 10° N visible
